Back to catalog

NOAA 16 DEB

AliveSSO
NORAD 41216·DEBRIS·🇺🇸 United States

Launched Sep 21, 2000 from Vandenberg Space Force Base

Loading…

Next Passes (next 24 hours)

TLE

FreshSource: Space-Track

Epoch: Sep 13, 2026, 19:33 UTC

1 41216U 00055DV  26256.81464634  .00001364  00000-0  90903-3 0  9999
2 41216  98.9365 206.5238 0094966 304.9249  54.3022 14.00704158546794

Track NOAA 16 DEB in real time with AllMySat

Download on the App Store